Regional Weather Roundup
Issued by NWS Sterling, VA

Home | Current Version | Previous Version | Graphics & Text | Print | Product List | Glossary On
Versions: 1 2 3 4 5 6 7 8 9 10 11 12 13 14 15 16 17 18 19 20 21 22 23 24 25 26 27 28 29 30 31 32 33 34 35 36 37 38 39 40 41 42 43 44 45 46 47 48 49 50
000
ASUS41 KLWX 302310
RWRLWX

REGIONAL WEATHER ROUNDUP
NATIONAL WEATHER SERVICE BALTIMORE MD/WASHINGTON DC
700 PM EDT WED JUL 30 2014

Note: "FAIR" indicates few or no clouds below 12,000 feet
with no significant weather and/or obstructions to visibility.
 TC=TEMPERATURE CELSIUS

 * =Non NWS site. Station does not report precipitation (e.g. rain,
    snow, etc.), thunder, or fog.

DCZ001-MDZ009-015-VAZ040>042-051-053>054-310000-
WASHINGTON METRO
  /KDAA//-FT BELVOIR

CITY           SKY/WX    TMP DP  RH WIND       PRES   REMARKS
WASHINGTON NAT MOSUNNY   78  54  43 S12       30.03S
DULLES         MOSUNNY   75  52  44 S8        30.03S
ANDREWS AFB    SUNNY     76  54  45 S7        30.04R
QUANTICO       MOSUNNY   77  55  46 S7        30.04S
COLLEGE PARK*  SUNNY     79  52  38 CALM      30.03R
LEESBURG*      SUNNY     79  59  50 W5        30.04R
MANASSAS*      SUNNY     77  55  47 S3        30.03
GAITHERSBURG*  SUNNY     77  52  41 S6        30.07S

$$

MDZ006>007-011-014-310000-
BALTIMORE METRO

CITY           SKY/WX    TMP DP  RH WIND       PRES   REMARKS
BWI AIRPORT    MOSUNNY   77  49  37 CALM      30.02S
MD SCIENCE CTR   N/A     78  51  38 MISG      30.03R
MARTIN STATE   SUNNY     75  57  53 S10       30.04S
ANNAPOLIS      SUNNY     75  54  47 S13       30.03S
FORT MEADE*    SUNNY     72  59  64 CALM      30.05R

$$

MDZ012-015-019>023-310000-
MARYLAND EASTERN SHORE

CITY           SKY/WX    TMP DP  RH WIND       PRES   REMARKS
OCEAN CITY     SUNNY     73  60  63 VRB6      30.05R
SALISBURY      SUNNY     78  52  40 SW6       30.05R
BAY BRIDGE AP*   N/A     75  52  43 S5        30.04R
CAMBRIDGE*     SUNNY     77  48  36 CALM      30.05R
EASTON*        SUNNY     77  55  47 SW3       30.08S

$$

MDZ017>025-310000-
SOUTHERN MARYLAND

CITY           SKY/WX    TMP DP  RH WIND       PRES   REMARKS
PATUXENT RIVER MOSUNNY   77  51  40 W3        30.04S
ST INIGOES     SUNNY     76  53  44 W3        30.04R
LEONARDTOWN*   SUNNY     75  52  43 CALM      30.06S

$$

MDZ003>005-310000-
NORTH CENTRAL MARYLAND

CITY           SKY/WX    TMP DP  RH WIND       PRES   REMARKS
FREDERICK*     SUNNY     77  59  53 CALM      30.05S
HAGERSTOWN APT MOSUNNY   75  53  46 S8        30.03R
WESTMINSTER*   SUNNY     75  57  53 SW3       30.05R

$$

MDZ501>502-310000-
WESTERN MARYLAND

CITY           SKY/WX    TMP DP  RH WIND       PRES   REMARKS
OAKLAND*       MOSUNNY   63  54  72 SW6       30.11R
CUMBERLAND*    MOSUNNY   77  55  47 S6        30.06R

$$

VAZ025>031-310000-
SHENANDOAH VALLEY

CITY           SKY/WX    TMP DP  RH WIND       PRES   REMARKS
WINCHESTER*    MOSUNNY   73  54  49 SW6       30.04R
STAUNTON*      PTSUNNY   74  54  49 S6        30.08R

$$

WVZ021-048>050-054>055-310000-
EASTERN WEST VIRGINIA PANHANDLE

CITY           SKY/WX    TMP DP  RH WIND       PRES   REMARKS
MARTINSBURG    SUNNY     76  53  44 S5        30.03S
PETERSBURG*    SUNNY     73  49  42 CALM      30.05R

$$

VAZ036>039-050-310000-
CENTRAL FOOTHILLS

CITY           SKY/WX    TMP DP  RH WIND       PRES   REMARKS
CHARLOTTESVILL SUNNY     76  54  46 SW5       30.04R
ORANGE*        SUNNY     77  55  47 SE5       30.06R

$$

VAZ055>057-310000-
NORTH AND CENTRAL PIEDMONT

CITY           SKY/WX    TMP DP  RH WIND       PRES   REMARKS
FREDERICKSBRG* SUNNY     79  57  47 S5        30.03S
STAFFORD*      SUNNY     77  56  48 S3        30.08R

$$

NCZ024-NYZ072-PAZ021-071-VAZ022-071-310000-
OTHER REGIONAL OBSERVATIONS

CITY           SKY/WX    TMP DP  RH WIND       PRES   REMARKS
NEW YORK CITY  SUNNY     75  54  47 VRB3      30.03R
PHILADELPHIA   MOSUNNY   78  53  41 SW12      30.03R
PITTSBURGH     CLOUDY    70  58  65 SW8       30.03R
ROANOKE        MOSUNNY   75  55  49 SE6       30.08S
RICHMOND       MOSUNNY   80  51  36 SW5       30.05R
RALEIGH        PTSUNNY   76  65  68 NW3       30.06R

$$

ANZ530>537-310000-
MARINE OBSERVATIONS

STATION/POSITION TIME  TEMP    WIND        PRES
                       AIR SEA DIR/SP/G
                 (UTC) (F)     (DEG/KT/KT) (MB)
THOMAS PT LIGHT  2300   75 78  160/ 12/ 13 1017.5R
BALT KEY BRIDGE  2300   76     140/ 12/ 13 1016.1S
COVE POINT       2300   78     280/  3/  5 1017.2R
LEWISETTA        2300   76 78  180/  3/  5 1017.3R
SOLOMONS ISLAND  2300      80                N/A
PINEY POINT      2300          350/  3/  4   N/A

$$



USA.gov is the U.S. government's official web portal to all federal, state and local government web resources and services.